Погода в Питнаке

Узбекистан     41°13′09″N   61°18′59″E
темп.,
°C
ветер,
м/с
пор.,
м/с
влажн.,
%
обл.,
%
осадки,
мм/ч
давл.,
гПа
погр.,
м
27 февраля, сб
сб2723:00−1ю5817100 0.1 1030502
02:00−2ююз6102094 0.0 1027372
05:00−1ююз6112193 0.0 1026516
08:000ююз81423100 0.1 1025551
11:00+2юз91244100 0.1 1026616
14:00+3юз81156100 0.1 1025542
17:00+3юз6962100 0.1 1024388
20:00+4ююз355697 0.0 102588
28 февраля, вс
вс2823:00+2ю455079 0.0 102559
02:00+1ю46361 0.0 102478
05:00+1ююв45330 0.0 102261
08:00+1ююв463012 0.0 102291
11:00+6ююв572056 0.0 1021331
14:00+10ююв562084 0.0 1019669
17:00+11ююв452488 0.0 1017770
20:00+8юв453529 0.0 101762
1 марта, пн
пн123:00+6юв453915 0.0 101747
02:00+5юв45390 0.0 101746
05:00+4ююв34410 0.0 101627
08:00+4ююв34410 0.0 101728
11:00+9ю33300 0.0 1017243
14:00+14зюз34240 0.0 1017602
17:00+15з45240 0.0 1016907
20:00+11з34320 0.0 101830
2 марта, вт
вт223:00+9зсз34340 0.0 102031
02:00+7ссз34420 0.0 102031
05:00+3с56620 0.0 1021121
08:00+1ссв58892 0.0 1024236
11:00+5с566319 0.0 1025411
14:00+8с44549 0.0 1024650
17:00+8с445540 0.0 1024822
20:00+6св456490 0.0 1025415
3 марта, ср
ср323:00+5св346995 0.0 1025166
02:00+4св337695 0.0 102476
05:00+3всв337791 0.0 102472
08:00+3в347797 0.0 102392
11:00+6вюв445796 0.0 1023525
14:00+9юв224963 0.0 1020921
17:00+10ююв114741 0.0 10181093
20:00+8в355243 0.0 1017124